Regional Weather Roundup
Issued by NWS

Home | Current Version | Previous Version | Graphics & Text | Print | Product List | Glossary Off
Versions: 1 2 3 4 5 6 7 8 9 10 11 12 13 14 15 16 17 18 19 20 21 22 23 24 25 26 27 28 29 30 31 32 33 34 35 36 37 38 39 40 41 42 43 44 45 46 47 48 49 50

000
ASUS43 KDMX 180607
RWRIA

WEATHER ROUNDUP FOR IOWA
NATIONAL WEATHER SERVICE DES MOINES IA
100 AM CDT SAT APR 18 2015

NOTE: "FAIR" INDICATES FEW OR NO CLOUDS BELOW 12,000 FEET WITH NO
SIGNIFICANT WEATHER AND/OR OBSTRUCTIONS TO VISIBILITY.

* - THESE STATIONS ARE NOT NWS STATIONS...THUS NOT UNDER NWS
QUALITY CONTROL.  THEY ALSO DO NOT REPORT WEATHER SUCH
AS PRECIPITATION OR FOG.

IAZ001>003-012>014-020>022-031>034-043>046-180700-
   NORTHWEST IOWA

CITY           SKY/WX    TMP DP  RH WIND       PRES   REMARKS
CARROLL *      CLOUDY    59  46  63 CALM      30.01S
CHEROKEE *     MOCLDY    53  50  89 CALM      30.02S
DENISON *      CLOUDY    61  46  59 CALM      29.99F
LE MARS *      MOCLDY    54  48  82 N3        30.02F
ORANGE CITY *  CLEAR     61  37  41 NE6       30.03S
SHELDON *      PTCLDY    54  36  50 NE7       30.03S
SIOUX CITY     CLOUDY    64  49  57 W5        30.01S
6HR MIN TEMP:  62; 6HR MAX TEMP:  75;

SPENCER          N/A     56  37  49 NE6       30.03F
6HR MIN TEMP:  56; 6HR MAX TEMP:  75;

STORM LAKE *   CLOUDY    61  46  59 NE8       30.03S
$$

IAZ055>058-069>071-079>083-090>094-180700-
   SOUTHWEST IOWA

CITY           SKY/WX    TMP DP  RH WIND       PRES   REMARKS
ATLANTIC *     CLOUDY    59  55  88 N5        30.00S
AUDUBON *      PTCLDY    59  54  82 CALM      30.02S
CLARINDA *     CLOUDY    61  61 100 N6        30.00F
COUNCIL BLFS * CLOUDY    64  59  82 E5        29.99S
CRESTON *      CLOUDY    61  54  77 E7        30.01S
HARLAN  *      CLOUDY    61  57  88 N7        30.03S
LAMONI           N/A     66  53  63 E6        30.00S
6HR MIN TEMP:  65; 6HR MAX TEMP:  76; 6HR PCP: TRACE;

RED OAK *      CLOUDY    66  57  72 SE9       30.00S
SHENANDOAH *   CLOUDY    64  57  77 E7G14     29.98F
$$

IAZ047>049-059>061-072>074-084-180700-
   CENTRAL IOWA

CITY           SKY/WX    TMP DP  RH WIND       PRES   REMARKS
AMES             N/A     60  50  69 CALM      30.00F
6HR MIN TEMP:  57; 6HR MAX TEMP:  75;

ANKENY *       CLEAR     57  52  82 CALM      30.01R
CHARITON *     CLOUDY    64  52  63 SE6       30.01S
DES MOINES     CLOUDY    68  52  56 E5        30.00F
6HR MIN TEMP:  65; 6HR MAX TEMP:  76;

GRINNELL*        N/A     59  50  72 CALM      30.02S
KNOXVILLE *    CLOUDY    64  50  59 E5        30.00S
MARSHALLTOWN     N/A     59  48  67 CALM      30.01S
6HR MIN TEMP:  56; 6HR MAX TEMP:  75;

PELLA *          N/A     62  55  76 CALM      30.01F
PERRY *          N/A     61  50  67 NE6       30.00F
$$

IAZ004>006-015-016-023>025-035-036-180700-
   NORTH CENTRAL IOWA

CITY           SKY/WX    TMP DP  RH WIND       PRES   REMARKS
ALGONA *       PTCLDY    57  45  62 NE6       30.03F
CLARION *      CLEAR     55  46  71 E6        30.02S
ESTHERVILLE      N/A     53  34  48 N12       30.04S
6HR MIN TEMP:  53; 6HR MAX TEMP:  71;

FORT DODGE *   MOCLDY    55  45  67 CALM      30.03S
MASON CITY       N/A     53  43  68 N6        30.05R
6HR MIN TEMP:  52; 6HR MAX TEMP:  72;

FOREST CITY *  CLEAR     52  43  71 CALM      30.04S
IOWA FALLS *     N/A     54  45  71 CALM      30.04R
$$

IAZ007>011-017>019-026>030-037>042-050>054-066-180700-
   NORTHEAST IOWA

CITY           SKY/WX    TMP DP  RH WIND       PRES   REMARKS
CEDAR RAPIDS     N/A     58  50  75 NW7       30.01R
6HR MIN TEMP:  57; 6HR MAX TEMP:  74;

CHARLES CITY * MOCLDY    57  45  62 NE7       30.04R
CLINTON *        N/A     55  45  67 CALM      30.03F
DECORAH *      CLEAR     59  45  58 CALM      30.03R
DUBUQUE          N/A     56  45  66 CALM      30.02S
6HR MIN TEMP:  55; 6HR MAX TEMP:  72;

MONTICELLO *   CLEAR     55  55 100 CALM      30.01S
OELWEIN *      MOCLDY    59  46  63 E5        30.03S
WATERLOO         N/A     56  46  69 CALM      30.01S
6HR MIN TEMP:  55; 6HR MAX TEMP:  75;

$$

IAZ064-065-067-068-078-180700-
   EAST CENTRAL IOWA

CITY           SKY/WX    TMP DP  RH WIND       PRES   REMARKS
DAVENPORT        N/A     57  45  64 S5        30.01F
6HR MIN TEMP:  55; 6HR MAX TEMP:  75;

IOWA CITY        N/A     57  50  77 CALM      30.02S
6HR MIN TEMP:  56; 6HR MAX TEMP:  75;

MT. PLEASANT *   N/A     61  50  67 SE3       30.02R
MUSCATINE *    CLEAR     57  50  77 CALM      30.01S
QUAD CITIES      N/A     54  47  77 CALM      30.00S
6HR MIN TEMP:  53; 6HR MAX TEMP:  75;

$$

IAZ062-063-075>077-085>089-095>099-180700-
   SOUTHEAST IOWA

CITY           SKY/WX    TMP DP  RH WIND       PRES   REMARKS
BURLINGTON       N/A     57  52  83 CALM      30.01R
6HR MIN TEMP:  57; 6HR MAX TEMP:  78;

FAIRFIELD *    PTCLDY    59  50  72 SE3       30.02R
FORT MADISON * CLEAR     63  54  72 CALM      30.02S
KEOKUK *       MOCLDY    61  54  77 CALM      30.01R
OSKALOOSA *    MOCLDY    61  50  65 E5        30.02R
CENTERVILLE *  PTCLDY    64  54  68 E5        30.03R
OTTUMWA          N/A     58  49  72 E3        30.01R
6HR MIN TEMP:  57; 6HR MAX TEMP:  74;

WASHINGTON *   PTCLDY    59  52  77 CALM      30.01S
$$

ABBREVIATIONS USED IN REMARKS
   TC - TEMPERATURES IN CELSIUS
  WCI - WIND CHILL INDEX
   HX - HEAT INDEX
  VSB - VISIBILITY
$$



USA.gov is the U.S. government's official web portal to all federal, state and local government web resources and services.